DW7658 Weather Reports


Display with metric or nautical units.
time (UTC)temp
F
wind
direction
speed
MPH
gust
MPH
rain 1hr
in
rain 24hr
in
rain mn
in
humidity
%
barometer
mb
20260904111515 0 0.0 0.0 0.00 0.00 0.00 1009.0
20260904110009 0 0.0 0.0 0.00 0.00 0.00 1008.9
20260904104548 0 0.0 0.0 0.00 0.00 0.00 1008.7
20260904103043 0 0.0 0.0 0.00 0.00 0.00 1008.7
20260904101527 0 0.0 0.0 0.00 0.00 0.00 1008.8
20260904100022 0 0.0 0.0 0.00 0.00 0.00 1008.7
20260904094531 0 0.0 0.0 0.00 0.00 0.00 1008.6
20260904093013 0 0.0 0.0 0.00 0.00 0.00 1008.6
20260904091508 0 0.0 0.0 0.00 0.00 0.00 1008.5
20260904090004 0 0.0 0.0 0.00 0.00 0.00 1008.7
20260904084600 0 0.0 0.0 0.00 0.00 0.00 1008.5
20260904083105 0 0.0 0.0 0.00 0.00 0.00 1008.6
20260904081533 0 0.0 0.0 0.00 0.00 0.00 1008.7
20260904080030 0 0.0 0.0 0.00 0.00 0.00 1008.6
20260904074509 70 27 0.0 0.0 0.00 0.00 0.00 87 1008.6
20260904073006 71 27 0.0 0.0 0.00 0.00 0.00 87 1008.8
20260904071548 72 27 0.0 0.0 0.00 0.00 0.00 87 1008.8
20260904070047 72 27 0.0 0.0 0.00 0.00 0.00 87 1008.8
20260904064537 72 27 0.0 0.0 0.00 0.00 0.00 87 1009.0
20260904063029 72 27 0.0 0.0 0.00 0.00 0.00 87 1009.1
20260904061508 72 27 0.0 0.0 0.00 0.00 0.00 87 1009.1
20260904060008 72 27 0.0 0.0 0.00 0.00 0.00 87 1009.1
20260904054552 72 27 0.0 0.0 0.00 0.00 0.00 87 1009.1
20260904053048 73 27 0.0 0.0 0.00 0.00 0.00 87 1009.2
20260904051530 73 27 0.0 0.0 0.00 0.00 0.00 87 1009.2
20260904050040 73 27 0.0 0.0 0.00 0.00 0.00 87 1009.1
20260904044509 73 27 0.0 0.0 0.00 0.00 0.00 87 1009.1
20260904043010 73 27 0.0 0.0 0.00 0.00 0.00 87 1009.2
20260904041609 74 27 0.0 0.0 0.00 0.00 0.00 87 1009.1
20260904040050 74 27 0.0 0.0 0.00 0.00 0.00 87 1009.1
20260904034549 74 27 0.0 0.0 0.00 0.00 0.00 87 1009.0
20260904033028 75 27 0.0 0.0 0.00 0.00 0.00 87 1008.9
20260904031525 75 27 0.0 0.0 0.00 0.00 0.00 86 1008.9
20260904030005 76 27 0.0 0.0 0.00 0.00 0.00 86 1009.0
20260904024505 76 27 0.0 0.0 0.00 0.00 0.00 86 1009.2
20260904023045 77 27 0.0 0.0 0.00 0.00 0.00 85 1009.3
20260904021551 77 27 0.0 0.0 0.00 0.00 0.00 85 1009.2
20260904020023 78 27 0.0 0.0 0.00 0.00 0.00 84 1009.2
20260904014520 78 27 0.0 0.0 0.00 0.00 0.00 83 1009.3
20260904013001 79 27 0.0 0.0 0.00 0.00 0.00 83 1009.5
20260904011559 80 27 0.0 0.0 0.00 0.00 0.00 82 1009.2
20260904010040 81 27 0.0 0.0 0.00 0.00 0.00 81 1009.1
20260904004538 81 27 0.0 0.0 0.00 0.00 0.00 80 1008.9
20260904003029 82 27 0.0 0.0 0.00 0.00 0.00 78 1008.7
20260904001538 83 27 0.0 0.0 0.00 0.00 0.00 75 1008.5
20260904000025 84 27 0.0 0.0 0.00 0.00 0.00 73 1008.4
20260903234525 86 27 0.0 0.0 0.00 0.00 0.00 70 1008.2
20260903233036 87 27 0.0 0.0 0.00 0.00 0.00 68 1008.2
20260903231524 88 27 0.0 0.0 0.00 0.00 0.00 64 1008.2
20260903230030 89 26 0.0 1.0 0.00 0.00 0.00 64 1008.2
20260903224529 89 276 0.0 1.0 0.00 0.00 0.00 63 1008.2
20260903223006 90 41 0.0 1.0 0.00 0.00 0.00 62 1007.9
20260903221506 91 278 0.0 5.0 0.00 0.00 0.00 60 1007.7
20260903220048 91 32 0.0 2.0 0.00 0.00 0.00 58 1007.5
20260903214547 93 331 0.0 1.0 0.00 0.00 0.00 56 1007.4
20260903213037 95 273 1.0 3.0 0.00 0.00 0.00 53 1007.4
20260903211528 97 287 0.0 1.0 0.00 0.00 0.00 51 1007.4
20260903210010 98 219 0.0 3.0 0.00 0.00 0.00 48 1007.4
20260903204509 97 226 0.0 7.0 0.00 0.00 0.00 49 1007.7
20260903203053 98 108 0.0 3.0 0.00 0.00 0.00 47 1007.8
20260903201545 99 102 0.0 6.0 0.00 0.00 0.00 48 1008.2
20260903200025 99 228 0.0 1.0 0.00 0.00 0.00 48 1008.5
20260903194523 99 315 0.0 5.0 0.00 0.00 0.00 45 1008.7
20260903193008 100 70 0.0 3.0 0.00 0.00 0.00 49 1008.7
20260903191503 100 295 0.0 2.0 0.00 0.00 0.00 47 1008.9
20260903190044 101 295 0.0 1.0 0.00 0.00 0.00 47 1009.1
20260903184549 99 133 0.0 3.0 0.00 0.00 0.00 50 1009.2
20260903183029 99 134 0.0 2.0 0.00 0.00 0.00 51 1009.2
20260903181525 100 93 1.0 3.0 0.00 0.00 0.00 46 1009.4
20260903180005 100 156 1.0 6.0 0.00 0.00 0.00 47 1009.6
20260903174503 101 191 0.0 3.0 0.00 0.00 0.00 48 1009.7
20260903173044 101 165 0.0 2.0 0.00 0.00 0.00 46 1009.8
20260903171546 101 146 0.0 4.0 0.00 0.00 0.00 48 1009.9
20260903170025 100 143 0.0 2.0 0.00 0.00 0.00 47 1010.0
20260903164524 99 188 0.0 4.0 0.00 0.00 0.00 48 1010.2
20260903163004 100 152 0.0 2.0 0.00 0.00 0.00 48 1010.4
20260903161503 100 156 0.0 3.0 0.00 0.00 0.00 48 1010.5
20260903160051 100 179 0.0 1.0 0.00 0.00 0.00 51 1010.5
20260903154548 99 170 0.0 2.0 0.00 0.00 0.00 53 1010.5
20260903153045 99 168 0.0 2.0 0.00 0.00 0.00 55 1010.7
20260903151544 98 173 0.0 1.0 0.00 0.00 0.00 57 1010.6
20260903150039 96 117 0.0 1.0 0.00 0.00 0.00 58 1010.6
20260903144540 96 145 0.0 0.0 0.00 0.00 0.00 57 1010.5
20260903143034 95 84 0.0 0.0 0.00 0.00 0.00 59 1010.5
20260903141530 94 79 0.0 0.0 0.00 0.00 0.00 62 1010.6
20260903140012 92 80 0.0 0.0 0.00 0.00 0.00 64 1010.6
20260903134508 90 79 0.0 0.0 0.00 0.00 0.00 67 1010.8
20260903133050 89 77 0.0 0.0 0.00 0.00 0.00 70 1010.9
20260903131540 86 79 0.0 0.0 0.00 0.00 0.00 73 1011.2
20260903130018 84 79 0.0 0.0 0.00 0.00 0.00 77 1011.3
20260903124514 81 79 0.0 0.0 0.00 0.00 0.00 83 1011.3
20260903123053 78 79 0.0 0.0 0.00 0.00 0.00 86 1011.3
20260903121555 75 79 0.0 0.0 0.00 0.00 0.00 86 1011.4
20260903120044 72 77 0.0 0.0 0.00 0.00 0.00 87 1011.3
20260903114532 0 0.0 0.0 0.00 0.00 0.00 1011.2
20260903113010 0 0.0 0.0 0.00 0.00 0.00 1011.1